Regional Weather Roundup
Issued by NWS Charleston, SC

Current Version | Previous Version | Text Only | Print | Product List | Glossary Off
Versions: 1 2 3 4 5 6 7 8 9 10 11 12 13 14 15 16 17 18 19 20 21 22 23 24 25 26 27 28 29 30 31 32 33 34 35 36 37 38 39 40 41 42 43 44 45 46 47 48 49 50
038 ASUS42 KCHS 222027 RWRCHS REGIONAL WEATHER ROUNDUP NATIONAL WEATHER SERVICE CHARLESTON SC 400 PM EDT MON MAY 22 2017 NOTE: "FAIR" INDICATES FEW OR NO CLOUDS BELOW 12,000 FEET WITH NO SIGNIFICANT WEATHER AND/OR OBSTRUCTIONS TO VISIBILITY. NOT ALL STATIONS ARE QUALITY CONTROLLED. USE DATA WITH CAUTION... ESPECIALLY DEWPOINT OBSERVATIONS. SCZ027-030-031-034>040-042>050-222100- ...SOUTHEAST SOUTH CAROLINA... CITY SKY/WX TMP DP RH WIND PRES REMARKS N CHARLESTON PTSUNNY 83 70 64 S13 29.95F WATERFRONT PRK N/A 80 74 82 S14 29.95F JOHNS ISLAND FAIR 79 73 83 S12 29.96F PINOPOLIS N/A 84 73 70 VRB2 29.88F HX 91 MONCKS CORNER MOCLDY 82 66 57 S6 29.94F SUMMERVILLE FAIR 81 72 74 S8 29.96S THUNDER BEAUFORT MCAS CLOUDY 76 73 91 CALM 29.95F BEAUFORT ARPT MOCLDY 77 73 88 S7 29.95F HILTON HEAD IS PTSUNNY 81 75 83 S7 29.97F WALTERBORO RAIN 70 68 94 SE7 29.97S ALLENDALE CLOUDY 73 72 94 N5 29.95F ...SOUTHERN MIDLANDS AND PEE DEE... CITY SKY/WX TMP DP RH WIND PRES REMARKS GEORGETOWN FAIR 81 72 74 S9 29.95F KINGSTREE FAIR 82 68 61 CALM 29.93F ORANGEBURG LGT RAIN 81 70 69 SW6 29.94F BARNWELL FAIR 75 72 88 S5 29.96F AIKEN TSTM 68 64 88 SW14G24 30.03R VSB 1/2 MANNING FAIR 79 72 78 S12 29.95S COLUMBIA CLOUDY 78 69 73 NE5 29.94F SUMTER LGT RAIN 72 68 88 N13 29.93F FLORENCE CLOUDY 85 69 58 S8 29.94F MYRTLE BEACH MOSUNNY 81 72 74 S18 29.97F N MYRTLE BEACH CLOUDY 81 72 74 S16 29.96F $$ GAZ063-065-086>088-099>101-113>116-118-119-134>141-150-222100- ...SOUTHEAST GEORGIA... CITY SKY/WX TMP DP RH WIND PRES REMARKS SAVANNAH ARPT CLOUDY 80 70 71 N8 29.95F THUNDER HUNTER AAF CLOUDY 86 78 76 S12 29.92F HX 97 FORT STEWART CLOUDY 88 67 50 S8 29.92F HX 91 STATESBORO CLOUDY 81 74 79 E7 29.95F SYLVANIA CLOUDY 81 74 81 S3 29.95F CLAXTON LGT RAIN 81 76 85 S3 29.95S ...CSRA...CENTRAL AND FAR SOUTHEAST GEORGIA... CITY SKY/WX TMP DP RH WIND PRES REMARKS THOMSON LGT RAIN 70 69 95 SW3 30.02F AUGUSTA-BUSH LGT RAIN 76 71 85 SE10 29.95R AUGUSTA-DANIEL HVY RAIN 72 67 84 N9 29.98R VSB 1/2 SWAINSBORO FAIR 79 72 78 W6 29.96F VIDALIA CLOUDY 86 70 58 W5 29.95F HX 90 EASTMAN MOCLDY 82 60 47 N3 29.98F HAZLEHURST CLOUDY 86 69 56 NW5 29.94S HX 90 ALMA CLOUDY 89 67 47 S8 29.94F HX 92 WAYCROSS PTSUNNY 92 70 48 W7 29.94S HX 98 JESUP FAIR 88 66 48 S6 29.95S HX 90 BAXLEY PTSUNNY 88 72 58 SW5 29.94S HX 94 BRUNSWICK LGT RAIN 73 73 100 SE7 29.98F SAINT SIMONS TSTM 74 72 93 SE7 29.97F $$ SCZ027-028-034-036>038-045-046-048>050-GAZ119-141-222100- ...LAKE AND SUPPLEMENTAL COASTAL OBSERVATIONS... STATION/POSITION TIME TEMP WIND PRES WAVE SWELL AIR SEA DIR/SP/G HT/PER HT/PER/DIR (UTC) (F) (DEG/KT/KT) (MB) (FT/S) (FT/S/D) WINYAH BAY 1930 81 190/ 13 1015.0F LAKE MURRAY 1950 74 CALM / 1 1013.9F ACE BASIN NERRS 1945 77 160/ 1 1015.0F FORT PULASKI 2000 82 80 160/ 8/ 12 1014.8 SAPELO ISLAND 1930 81 150/ 9 1015.0S $$ ANZ835-935-AMZ111-154-330-350-352-354-370-450-454-472-222100- ...C-MAN AND BUOY OBSERVATIONS... STATION/POSITION TIME TEMP WIND PRES WAVE SWELL AIR SEA DIR/SP/G HT/PER HT/PER/DIR (UTC) (F) (DEG/KT/KT) (MB) (FT/S) (FT/S/D) BUOY 41004 2010 78 78 190/ 12/ 14 1014.5 BUOY 41008 1950 78 78 160/ 12/ 14 1014.3F 2/ 4 2/110/ 8 FOLLY BEACH CMAN 2000 78 180/ 13/ 15 1015.4F CAPERS NEARSHORE 2008 80 78 200/ 14/ 19 1014.1F FRIPP NEARSHORE 2008 78 79 170/ 12/ 16 1014.1F STATION/POSITION TIME TEMP WIND PRES WAVE SWELL AIR SEA DIR/SP/G HT/PER HT/PER/DIR (UTC) (F) (DEG/KT/KT) (MB) (FT/S) (FT/S/D) 5E ST. MARYS GA 2000 79 N/A 2/ 8 FRYING PAN BUOY 2010 78 78 190/ 14/ 16 1014.9 BUOY 41025 1950 77 78 200/ 14/ 17 1015.6F 4/ 8 3/ 80/ 8 CAPE LOOKOUT NC 2000 78 200/ 13/ 15 1014.9F BUOY 41002 1950 76 79 180/ 2/ 4 1018.3F 3/ 8 3/ 10/ 8 BUOY 41010 2010 78 79 150/ 10/ 12 1016.8 ST AUGUSTINE FL 2000 78 81 160/ 20/ 22 1015.3F $$

USA.gov is the U.S. government's official web portal to all federal, state and local government web resources and services.